Date,TemperatureHighF,TemperatureAvgF,TemperatureLowF,DewpointHighF,DewpointAvgF,DewpointLowF,HumidityHigh,HumidityAvg,HumidityLow,PressureMaxIn,PressureMinIn,WindSpeedMaxMPH,WindSpeedAvgMPH,GustSpeedMaxMPH,PrecipitationSumIn
2013-4-1,45.3,36.5,29.3,30.1,25.8,22.1,88,66,42,29.84,29.77,11,3,20,0.00
2013-4-2,48.2,38.1,31.1,32.2,25.6,18.1,89,63,34,30.00,29.81,14,4,24,0.00
2013-4-3,38.3,34.9,29.7,31.8,26.4,23.1,95,72,59,30.00,29.92,14,5,29,0.00
2013-4-4,37.2,34.3,32.5,34.8,29.6,25.2,97,83,66,29.92,29.84,14,5,24,0.02
2013-4-5,44.6,37.8,33.6,33.6,28.3,20.6,84,70,44,30.06,29.82,18,4,27,0.00
2013-4-6,55.4,41.1,26.2,34.9,29.4,22.6,96,66,35,30.25,30.06,9,2,17,0.00
2013-4-7,53.6,43.6,20.7,36.4,26.7,19.2,99,54,29,30.25,29.83,8,2,13,0.00
2013-4-8,54.7,43.7,37.6,35.4,31.1,26.7,80,62,39,29.83,29.49,8,2,15,0.00
2013-4-9,46.9,41.6,30.9,44.3,39.5,28.1,99,92,81,29.49,29.32,6,2,12,0.12
2013-4-10,50.5,42.2,35.8,44.0,40.2,35.5,99,93,70,29.68,29.36,6,1,11,0.33
2013-4-11,58.5,49.4,42.6,50.3,46.7,42.4,99,91,66,29.45,29.29,7,2,12,0.12
2013-4-12,56.7,47.7,41.4,52.5,46.1,41.1,99,95,76,29.72,29.26,10,3,24,0.38
2013-4-13,53.4,46.7,35.1,51.0,45.5,34.8,99,96,80,29.87,29.72,11,3,22,0.38
2013-4-14,69.3,58.3,50.9,54.3,51.3,47.3,99,79,57,29.93,29.86,13,5,28,0.00
2013-4-15,61.5,54.2,42.3,52.5,48.2,41.8,99,81,67,30.04,29.92,12,4,21,0.00
2013-4-16,62.6,52.6,43.5,51.8,47.3,41.4,99,84,48,30.07,29.89,14,4,24,0.01
2013-4-17,67.5,55.2,48.2,55.7,51.2,46.7,99,88,60,30.07,29.76,12,4,28,0.04
2013-4-18,59.2,50.9,44.1,48.1,42.3,35.4,89,73,54,30.07,29.77,17,6,30,0.02
2013-4-19,62.4,49.6,36.0,45.5,39.7,31.4,95,71,34,30.46,30.07,8,3,15,0.00
2013-4-20,61.5,44.6,28.0,45.2,31.5,24.4,99,66,28,30.50,30.33,8,1,14,0.00
2013-4-21,61.7,44.5,25.5,44.5,33.2,24.8,99,69,35,30.33,30.00,8,2,14,0.00
2013-4-22,59.4,52.6,40.3,50.2,45.2,39.5,99,78,53,30.00,29.93,9,4,16,0.00
2013-4-23,74.1,59.3,46.4,53.1,49.0,45.3,99,73,41,30.18,29.94,8,2,13,0.00
2013-4-24,66.6,52.7,41.2,55.7,49.7,40.9,99,90,65,30.23,30.16,8,2,14,0.00
2013-4-25,73.0,54.9,46.2,58.7,49.6,45.5,99,85,48,30.22,29.98,8,1,13,0.00
2013-4-26,59.5,48.5,34.3,50.0,40.0,27.7,99,75,39,29.99,29.86,11,2,22,0.08
2013-4-27,56.8,43.1,33.3,40.6,35.5,29.0,98,76,42,30.06,29.84,11,2,17,0.01
2013-4-28,55.8,43.3,26.6,47.7,34.2,26.4,99,73,41,30.06,29.88,8,2,16,0.02
2013-4-29,61.7,50.2,34.9,45.0,37.7,30.9,98,66,37,30.13,29.85,8,3,15,0.00
2013-4-30,62.6,48.2,32.0,46.0,35.9,30.1,99,67,35,30.26,30.12,10,2,15,0.00